Regional Weather Roundup
Issued by NWS Burlington, VT

Home | Current Version | Previous Version | Text Only | Print | Product List | Glossary On
Versions: 1 2 3 4 5 6 7 8 9 10 11 12 13 14 15 16 17 18 19 20 21 22 23 24 25 26 27 28 29 30 31 32 33 34 35 36 37 38 39 40 41 42 43 44 45 46 47 48 49 50
000
ASUS41 KBTV 060910
RWRBTV
VERMONT REGIONAL WEATHER ROUNDUP
NATIONAL WEATHER SERVICE BURLINGTON VT
500 AM EDT MON JUL 06 2015

NOTE: "FAIR" INDICATES FEW OR NO CLOUDS BELOW 12,000 FEET WITH NO
SIGNIFICANT WEATHER AND/OR OBSTRUCTIONS TO VISIBILITY.

* THESE REPORTS ARE NOT UNDER NWS QUALITY CONTROL AND/OR DO NOT
  REPORT WEATHER SUCH AS PRECIPITATION AND FOG.

VTZ001>019-061000-
_____VERMONT_____


CITY           SKY/WX    TMP DP  RH WIND       PRES   REMARKS
BURLINGTON     CLEAR     60  57  89 CALM      30.12F
MONTPELIER     FOG       54  54 100 CALM      30.20F VSB 1/2
MORRISVILLE    FOG       55  53  93 CALM      30.17F VSB 1
ST. JOHNSBURY*   N/A     56  54  93 MISG      30.15S
LYNDONVILLE*   FOG       53  52  97 CALM      30.18S VSB 1/2
MIDDLEBURY*    FAIR      59  59 100 CALM      30.14F FOG
RUTLAND*       CLEAR     57  52  82 SE7       30.17F
SPRINGFIELD    CLOUDY    55  54  96 CALM      30.18S FOG
HIGHGATE*      FAIR      58  57  97 SE3       30.11S
NEWPORT*       FAIR      55  54  99 CALM      30.16S FOG
BENNINGTON     FOG       52  51  97 CALM      30.17S VSB 1/2
SUTTON*          N/A     54 N/A N/A MISG        N/A

_____LAKE CHAMPLAIN_____


CITY           SKY/WX    TMP DP  RH WIND       PRES   REMARKS

$$

NYZ007-026>031-035-052-083-061000-
_____NORTHERN NEW YORK_____


CITY           SKY/WX    TMP DP  RH WIND       PRES   REMARKS
PLATTSBURGH    CLEAR     57  56  96 S5        30.11F
SARANAC LAKE   FOG       46  45  96 CALM      30.15F VSB 1
MASSENA        CLEAR     57  55  93 CALM      30.10F
OGDENSBURG*    CLEAR     57  57 100 CALM      30.11S
POTSDAM*       CLEAR     57  57 100 CALM      30.11F
WATERTOWN      CLEAR     55  51  86 CALM      30.11S
FT DRUM        CLEAR     58  55  89 SE8       30.12S
ALBANY         MOCLDY    60  56  86 CALM      30.16R
GLENS FALLS    FOG       57  54  89 CALM      30.14F VSB 3/4

$$
NHZ002-005-011-061000-
_____NEW HAMPSHIRE_____


CITY           SKY/WX    TMP DP  RH WIND       PRES   REMARKS
LEBANON        MOCLDY    59  56  89 S3        30.16S FOG
KEENE          CLOUDY    57  54  88 CALM      30.18S VSB 1/4
PLYMOUTH       FAIR      54  54 100 CALM      30.17S FOG
WHITEFIELD     PTCLDY    49  46  90 CALM      30.17S

$$

_____REGIONAL QUEBEC LOCATIONS_____


CITY           SKY/WX    TMP DP  RH WIND       PRES   REMARKS
MONTREAL       MOCLDY    64  61  88 W5        30.10S
QUEBEC CITY    PTCLDY    57  54  88 N5        30.10R
SHERBROOKE     CLEAR     55  54  94 E5        30.13S

_____REGIONAL ONTARIO LOCATIONS_____


CITY           SKY/WX    TMP DP  RH WIND       PRES   REMARKS
OTTAWA         PTCLDY    59  57  94 CALM      30.11R

______KEY______
VSB  - VISIBILITY IN MILES
WCI  - WIND CHILL INDEX
HX   - HEAT INDEX
$$
NNNN



USA.gov is the U.S. government's official web portal to all federal, state and local government web resources and services.